User: anonymous   Login
Location: Adamstown South Public School
(32.9318°S, 151.7012°E)
Time: 15:23:34
(UTC+00:00)
Language:

BREEZE-M DEB (TANK) - Orbit

View from above orbital plane
View from above orbital plane
View from above satellite
View from above satellite

Ground track
Ground track

The orbit data is extracted from the following two-line orbital elements,

1 36133U 09075C   21163.56521389  .00000193  00000-0  13539-3 0  9996
2 36133  45.9010 279.1932 5169032 230.0557  71.8360  5.21965433217146
Epoch (UTC): 12 June 2021 13:33:54
Eccentricity: 0.5169032
inclination: 45.9010°
perigee height: 403 km
apogee height: 14916 km
right ascension of ascending node: 279.1932°
argument of perigee: 230.0557°
revolutions per day: 5.21965433
mean anomaly at epoch: 71.8360°
orbit number at epoch: 21714

The dashed part of the orbit path shows where the satellite is in the earth's shadow,  

DLR